星链-4649 (STARLINK-4649 )

导读 | 豆包AI

STARLINK-4649是美国SpaceX公司星链星座的卫星,于2022年9月19日发射。它属于星链低轨卫星互联网项目,该项目计划发射约4.2万颗卫星,旨在为全球提供高速低延迟互联网服务。该卫星运行在近地轨道,重量约297千克,目前在轨运行,助力实现偏远地区网络覆盖,不过星链项目也引发太空拥堵等争议。

基本信息
目录编号:
53831
目录名称:
STARLINK-4649
国际标识:
2022-114P
轨道中心:
EARTH
卫星名称:
星链-4649
卫星全名:
星链-4649 (STARLINK-4649 )
卫星状态:
在轨 (已飞行1273 天)
发射日期:
2022-09-19 UTC
国别 :
美国 (US)
星等 :
--
轨道信息
数据来源 国际轨道数据 AOE轨道数据
星历时间 2026-03-15T03:17:19+0800
12小时前
查看轨道信息
2026-03-11T16:00:00+0800
4天前
查看轨道信息
半长轴 6917.922km 6917.881km
偏心率 0.0001559 0.0001662
轨道倾角 53.217° 53.216°
近地点辐角 88.604° 72.110°
升交点赤经 281.149° 296.728°
平近点角 271.513° 147.491°
近地点 538.706km 538.594km
远地点 540.864km 540.894km
周期 95.438分钟 95.438分钟
每日圈数 15.088266 15.088399
详细信息
固有亮度:
5
最大亮度:
2.5
卫星平台:
Starlink v1.5
覆盖范围:
全球
运营商:
太空探索技术公司
运营商所在国:
美国
制造商(研发单位):
太空探索技术公司
制造商所在国:
美国
使用方式:
暂无
卫星简介
星链(Starlink)计划是由太空探索技术公司(SpaceX)提出的一个巨型低轨卫星互联网星座项目,计划在2019年至2024年间在太空搭建由约1.2万颗卫星组成的“星链”网络,其中1584颗将部署在地球上空550千米处的近地轨道,并从2020年开始工作。该卫星仍在工作。
2D轨道图
3D轨道图
轨道高度分析图
轨道倾角分析图
轨道综合分析图
查看轨道综合分析图